User: anonymous   Login
Location: Unspecified
(0.0000°N, 0.0000°E)
Time: 21:25:25
(UTC+02:00)
Language:

GPS 2-12 Rocket1 - Orbit

View from above orbital plane
View from above orbital plane
View from above satellite
View from above satellite

Ground track
Ground track

The orbit data is extracted from the following two-line orbital elements,

1 21891U 92009B   15116.46550324  .00002182  00000-0  21483-3 0  9998
2 21891 019.9958 159.4472 0048223 144.0510 216.3165 14.81997723249954
Epoch (UTC): 26 April 2015 11:10:19
Eccentricity: 0.0048223
inclination: 19.9958°
perigee height: 589 km
apogee height: 657 km
right ascension of ascending node: 159.4472°
argument of perigee: 144.0510°
revolutions per day: 14.81997723
mean anomaly at epoch: 216.3165°
orbit number at epoch: 24995

The dashed part of the orbit path shows where the satellite is in the earth's shadow,  

DLR